QPF
0.00 0.00 0.00 0.01 0.01 0.00 0.00 0.00 0.01 0.00 0.01 0.01 0.02 0.02 0.01 0.01 0.01 0.02 0.02 0.02 0.01 0.02 0.03 0.03 0.03 0.04 0.04 0.04 0.04 0.03 0.02 0.02 0.02 0.01 0.01 0.01 0.01 0.01 0.01 0.02 0.01 0.01 0.03 0.06
0.00 0.00 0.00 0.01 0.01 0.01 0.01 0.01 0.01 0.00 0.00 0.01 0.02 0.02 0.01 0.01 0.02 0.02 0.02 0.01 0.01 0.02 0.02 0.02 0.01 0.02 0.03 0.04 0.03 0.03 0.02 0.02 0.03 0.03 0.02 0.02 0.01 0.01 0.01 0.02 0.01 0.01 0.02 0.03
0.00 0.00 0.00 0.01 0.01 0.01 0.01 0.01 0.00 0.00 0.00 0.00 0.01 0.01 0.01 0.01 0.01 0.01 0.01 0.01 0.01 0.02 0.02 0.02 0.01 0.01 0.02 0.03 0.03 0.03 0.03 0.02 0.03 0.03 0.03 0.02 0.01 0.01 0.01 0.01 0.01 0.01 0.02 0.03
0.01 0.00 0.00 0.00 0.01 0.00 0.01 0.01 0.01 0.00 0.01 0.01 0.01 0.01 0.01 0.00 0.01 0.01 0.01 0.01 0.01 0.01 0.01 0.01 0.01 0.02 0.03 0.02 0.02 0.02 0.03 0.04 0.04 0.02 0.03 0.02 0.01 0.01 0.01 0.01 0.02 0.03 0.03 0.02
0.00 0.00 0.00 0.00 0.00 0.01 0.01 0.00 0.01 0.01 0.01 0.01 0.01 0.01 0.00 0.01 0.01 0.01 0.01 0.01 0.01 0.01 0.01 0.01 0.01 0.02 0.02 0.01 0.01 0.02 0.02 0.05 0.03 0.03 0.03 0.03 0.02 0.02 0.01 0.02 0.03 0.03 0.03 0.03
0.00 0.00 0.00 0.00 0.00 0.00 0.01 0.01 0.01 0.02 0.02 0.01 0.01 0.01 0.01 0.01 0.01 0.01 0.01 0.01 0.01 0.01 0.01 0.01 0.01 0.01 0.01 0.01 0.02 0.01 0.01 0.02 0.03 0.03 0.03 0.03 0.03 0.02 0.02 0.03 0.03 0.03 0.03 0.04
0.00 0.00 0.00 0.00 0.00 0.01 0.01 0.01 0.01 0.01 0.01 0.00 0.01 0.01 0.01 0.01 0.01 0.01 0.01 0.03 0.03 0.02 0.01 0.01 0.01 0.01 0.01 0.01 0.01 0.01 0.01 0.01 0.02 0.02 0.03 0.03 0.03 0.04 0.04 0.04 0.04 0.03 0.03 0.04
0.00 0.00 0.00 0.00 0.00 0.00 0.01 0.01 0.01 0.00 0.00 0.00 0.00 0.01 0.01 0.01 0.01 0.00 0.01 0.01 0.02 0.01 0.01 0.01 0.00 0.01 0.01 0.01 0.04 0.05 0.02 0.01 0.02 0.03 0.02 0.03 0.05 0.05 0.05 0.05 0.05 0.04 0.03 0.03
0.00 0.01 0.00 0.00 0.00 0.00 0.00 0.01 0.01 0.00 0.00 0.00 0.00 0.01 0.01 0.00 0.00 0.00 0.01 0.01 0.01 0.01 0.00 0.01 0.00 0.00 0.01 0.01 0.03 0.08 0.04 0.04 0.03 0.03 0.02 0.02 0.04 0.04 0.04 0.05 0.06 0.05 0.03 0.03
0.00 0.00 0.00 0.00 0.00 0.00 0.01 0.00 0.00 0.00 0.00 0.00 0.01 0.01 0.01 0.00 0.00 0.01 0.01 0.01 0.01 0.01 0.00 0.00 0.00 0.00 0.01 0.01 0.01 0.03 0.03 0.05 0.04 0.02 0.02 0.03 0.04 0.03 0.04 0.05 0.06 0.05 0.04 0.03
0.00 0.00 0.00 0.00 0.00 0.00 0.00 0.00 0.00 0.00 0.00 0.00 0.00 0.00 0.00 0.00 0.00 0.01 0.01 0.01 0.01 0.01 0.01 0.00 0.00 0.00 0.01 0.01 0.01 0.01 0.02 0.03 0.03 0.02 0.03 0.04 0.06 0.06 0.05 0.05 0.06 0.06 0.05 0.03
0.00 0.00 0.00 0.00 0.00 0.00 0.00 0.00 0.00 0.00 0.01 0.00 0.00 0.00 0.00 0.00 0.00 0.01 0.02 0.01 0.01 0.01 0.01 0.01 0.01 0.01 0.01 0.01 0.01 0.01 0.02 0.03 0.02 0.03 0.05 0.07 0.06 0.06 0.06 0.06 0.04 0.02 0.01 0.02
0.00 0.00 0.00 0.00 0.00 0.00 0.00 0.00 0.00 0.00 0.00 0.00 0.00 0.00 0.00 0.00 0.01 0.01 0.02 0.01 0.01 0.01 0.02 0.02 0.01 0.01 0.01 0.01 0.01 0.01 0.02 0.03 0.03 0.04 0.06 0.07 0.07 0.06 0.04 0.02 0.01 0.01 0.01 0.01
0.00 0.00 0.00 0.00 0.00 0.00 0.00 0.01 0.01 0.00 0.00 0.00 0.00 0.00 0.00 0.00 0.01 0.01 0.02 0.01 0.01 0.01 0.02 0.03 0.02 0.02 0.01 0.01 0.02 0.02 0.03 0.05 0.06 0.08 0.07 0.05 0.04 0.03 0.02 0.02 0.01 0.01 0.01 0.01
0.00 0.00 0.00 0.00 0.00 0.00 0.00 0.00 0.00 0.00 0.00 0.00 0.00 0.00 0.00 0.01 0.01 0.01 0.01 0.01 0.01 0.02 0.02 0.02 0.02 0.02 0.02 0.02 0.02 0.03 0.02 0.03 0.03 0.03 0.03 0.03 0.02 0.02 0.02 0.02 0.02 0.02 0.02 0.02
0.00 0.00 0.00 0.00 0.00 0.00 0.00 0.00 0.00 0.00 0.00 0.00 0.00 0.00 0.00 0.01 0.01 0.02 0.02 0.02 0.01 0.03 0.03 0.03 0.03 0.02 0.03 0.02 0.02 0.02 0.01 0.02 0.02 0.03 0.02 0.03 0.03 0.02 0.02 0.02 0.01 0.02 0.02 0.02
0.00 0.00 0.00 0.00 0.00 0.00 0.00 0.00 0.00 0.00 0.00 0.00 0.00 0.00 0.00 0.01 0.02 0.02 0.02 0.02 0.01 0.02 0.03 0.03 0.03 0.02 0.03 0.03 0.03 0.02 0.02 0.02 0.02 0.02 0.03 0.03 0.04 0.02 0.02 0.02 0.01 0.01 0.02 0.02
0.00 0.00 0.00 0.00 0.00 0.00 0.00 0.00 0.00 0.01 0.01 0.01 0.00 0.00 0.01 0.01 0.01 0.02 0.02 0.02 0.02 0.02 0.03 0.03 0.03 0.02 0.03 0.03 0.04 0.04 0.02 0.02 0.01 0.01 0.02 0.03 0.03 0.02 0.02 0.02 0.02 0.02 0.02 0.03
0.00 0.00 0.00 0.00 0.00 0.00 0.01 0.01 0.03 0.02 0.01 0.01 0.01 0.00 0.00 0.00 0.01 0.01 0.02 0.02 0.02 0.02 0.03 0.03 0.03 0.03 0.03 0.04 0.04 0.04 0.02 0.02 0.01 0.01 0.02 0.02 0.02 0.02 0.02 0.03 0.04 0.04 0.04 0.04
0.00 0.00 0.00 0.00 0.00 0.00 0.01 0.02 0.04 0.02 0.00 0.00 0.00 0.00 0.00 0.00 0.00 0.01 0.01 0.01 0.01 0.02 0.03 0.03 0.03 0.03 0.03 0.03 0.03 0.03 0.03 0.02 0.01 0.01 0.02 0.02 0.02 0.03 0.04 0.05 0.05 0.05 0.04 0.03
0.00 0.00 0.00 0.00 0.00 0.01 0.01 0.00 0.01 0.01 0.01 0.00 0.00 0.00 0.00 0.00 0.00 0.01 0.01 0.01 0.01 0.02 0.03 0.03 0.03 0.03 0.03 0.03 0.03 0.03 0.03 0.02 0.01 0.01 0.01 0.02 0.02 0.03 0.04 0.05 0.05 0.06 0.06 0.08
0.00 0.00 0.00 0.00 0.00 0.00 0.00 0.00 0.00 0.00 0.00 0.00 0.00 0.00 0.00 0.00 0.00 0.00 0.01 0.01 0.01 0.01 0.02 0.02 0.02 0.02 0.02 0.02 0.03 0.03 0.04 0.04 0.03 0.03 0.03 0.03 0.03 0.04 0.05 0.05 0.06 0.06 0.07 0.09
0.00 0.00 0.00 0.00 0.00 0.00 0.00 0.00 0.00 0.01 0.01 0.01 0.01 0.00 0.00 0.00 0.00 0.00 0.00 0.00 0.00 0.01 0.01 0.01 0.01 0.02 0.02 0.03 0.05 0.06 0.05 0.04 0.03 0.03 0.04 0.03 0.03 0.04 0.03 0.03 0.04 0.04 0.04 0.05
0.00 0.00 0.00 0.01 0.01 0.00 0.00 0.00 0.01 0.01 0.02 0.02 0.01 0.01 0.00 0.00 0.00 0.00 0.00 0.00 0.01 0.01 0.01 0.01 0.02 0.03 0.04 0.06 0.08 0.06 0.06 0.05 0.04 0.04 0.05 0.04 0.03 0.03 0.03 0.03 0.03 0.03 0.02 0.01
0.00 0.00 0.00 0.01 0.01 0.01 0.01 0.01 0.01 0.02 0.03 0.02 0.02 0.02 0.01 0.01 0.01 0.01 0.01 0.01 0.01 0.01 0.02 0.02 0.03 0.04 0.04 0.05 0.06 0.06 0.06 0.05 0.04 0.04 0.03 0.03 0.02 0.02 0.02 0.02 0.02 0.02 0.01 0.01
0.00 0.00 0.00 0.00 0.00 0.01 0.01 0.02 0.02 0.02 0.02 0.02 0.01 0.01 0.01 0.01 0.01 0.01 0.01 0.02 0.02 0.02 0.03 0.03 0.04 0.04 0.05 0.05 0.06 0.05 0.05 0.04 0.03 0.03 0.02 0.02 0.02 0.02 0.01 0.02 0.02 0.02 0.01 0.02
MSLP
1009.17 1010.15 1010.90 1011.42 1011.72 1011.87 1011.90 1011.90 1011.88 1011.86 1011.81 1011.73 1011.59 1011.39 1011.15 1010.89 1010.67 1010.53 1010.50 1010.59 1010.78 1011.02 1011.26 1011.45 1011.56 1011.57 1011.49 1011.37 1011.25 1011.18 1011.21 1011.34 1011.56 1011.85 1012.15 1012.43 1012.66 1012.81 1012.91 1012.97 1013.04 1013.16 1013.34 1013.60
1009.86 1010.63 1011.17 1011.47 1011.61 1011.67 1011.70 1011.76 1011.87 1012.01 1012.11 1012.14 1012.04 1011.82 1011.50 1011.11 1010.75 1010.48 1010.35 1010.39 1010.57 1010.86 1011.18 1011.47 1011.67 1011.76 1011.74 1011.66 1011.56 1011.52 1011.58 1011.76 1012.04 1012.40 1012.77 1013.11 1013.38 1013.54 1013.62 1013.63 1013.63 1013.66 1013.76 1013.96
1010.24 1010.78 1011.09 1011.20 1011.21 1011.23 1011.32 1011.52 1011.82 1012.16 1012.45 1012.60 1012.57 1012.33 1011.90 1011.37 1010.83 1010.39 1010.12 1010.07 1010.22 1010.53 1010.92 1011.29 1011.59 1011.76 1011.82 1011.79 1011.74 1011.74 1011.84 1012.07 1012.42 1012.85 1013.30 1013.71 1014.02 1014.21 1014.28 1014.26 1014.20 1014.15 1014.18 1014.30
1010.35 1010.66 1010.75 1010.72 1010.67 1010.72 1010.93 1011.34 1011.87 1012.45 1012.94 1013.23 1013.24 1012.96 1012.41 1011.69 1010.95 1010.30 1009.86 1009.68 1009.77 1010.07 1010.51 1010.96 1011.35 1011.62 1011.76 1011.80 1011.81 1011.85 1012.00 1012.28 1012.68 1013.17 1013.69 1014.17 1014.54 1014.76 1014.84 1014.81 1014.71 1014.62 1014.58 1014.63
1010.28 1010.38 1010.30 1010.18 1010.14 1010.29 1010.69 1011.33 1012.13 1012.95 1013.64 1014.04 1014.08 1013.72 1013.02 1012.09 1011.10 1010.22 1009.58 1009.26 1009.26 1009.54 1010.01 1010.54 1011.02 1011.39 1011.62 1011.74 1011.80 1011.89 1012.07 1012.38 1012.82 1013.36 1013.93 1014.46 1014.89 1015.16 1015.28 1015.26 1015.16 1015.04 1014.96 1014.96
1010.13 1010.06 1009.88 1009.73 1009.75 1010.05 1010.67 1011.57 1012.63 1013.67 1014.52 1015.00 1015.02 1014.55 1013.67 1012.51 1011.28 1010.16 1009.32 1008.84 1008.76 1009.02 1009.51 1010.11 1010.68 1011.14 1011.46 1011.66 1011.77 1011.89 1012.08 1012.40 1012.86 1013.42 1014.02 1014.60 1015.08 1015.41 1015.57 1015.59 1015.51 1015.40 1015.31 1015.28
1010.00 1009.80 1009.57 1009.45 1009.59 1010.06 1010.90 1012.03 1013.31 1014.52 1015.47 1015.98 1015.94 1015.34 1014.28 1012.90 1011.44 1010.11 1009.09 1008.48 1008.32 1008.56 1009.07 1009.73 1010.39 1010.94 1011.34 1011.60 1011.76 1011.89 1012.09 1012.40 1012.85 1013.40 1014.02 1014.62 1015.14 1015.52 1015.74 1015.81 1015.78 1015.69 1015.62 1015.59
1009.91 1009.66 1009.43 1009.38 1009.64 1010.28 1011.30 1012.62 1014.04 1015.35 1016.33 1016.81 1016.69 1015.96 1014.73 1013.17 1011.53 1010.04 1008.89 1008.20 1007.99 1008.22 1008.76 1009.47 1010.20 1010.82 1011.29 1011.59 1011.78 1011.92 1012.11 1012.40 1012.81 1013.35 1013.95 1014.56 1015.11 1015.54 1015.81 1015.95 1015.98 1015.94 1015.89 1015.88
1009.88 1009.62 1009.43 1009.47 1009.85 1010.62 1011.76 1013.17 1014.65 1015.97 1016.92 1017.33 1017.10 1016.26 1014.91 1013.24 1011.51 1009.94 1008.74 1008.01 1007.79 1008.03 1008.60 1009.35 1010.12 1010.80 1011.31 1011.64 1011.85 1011.99 1012.16 1012.42 1012.80 1013.30 1013.88 1014.49 1015.05 1015.51 1015.84 1016.04 1016.12 1016.13 1016.12 1016.13
1009.86 1009.63 1009.52 1009.64 1010.11 1010.95 1012.14 1013.55 1014.98 1016.23 1017.08 1017.38 1017.06 1016.15 1014.75 1013.06 1011.34 1009.80 1008.62 1007.93 1007.75 1008.01 1008.61 1009.38 1010.17 1010.86 1011.39 1011.73 1011.94 1012.08 1012.23 1012.46 1012.81 1013.28 1013.84 1014.44 1015.01 1015.49 1015.86 1016.10 1016.24 1016.30 1016.32 1016.35
1009.81 1009.65 1009.61 1009.81 1010.32 1011.17 1012.31 1013.62 1014.93 1016.02 1016.73 1016.91 1016.52 1015.58 1014.22 1012.62 1011.01 1009.59 1008.54 1007.95 1007.84 1008.14 1008.75 1009.52 1010.29 1010.97 1011.48 1011.83 1012.03 1012.17 1012.32 1012.54 1012.87 1013.32 1013.86 1014.45 1015.01 1015.51 1015.91 1016.19 1016.36 1016.45 1016.50 1016.54
1009.69 1009.62 1009.67 1009.92 1010.43 1011.22 1012.23 1013.37 1014.47 1015.36 1015.89 1015.95 1015.52 1014.62 1013.37 1011.94 1010.53 1009.33 1008.47 1008.03 1008.02 1008.37 1008.98 1009.71 1010.45 1011.08 1011.56 1011.89 1012.09 1012.24 1012.40 1012.63 1012.96 1013.41 1013.95 1014.52 1015.09 1015.59 1016.00 1016.30 1016.49 1016.61 1016.68 1016.74
1009.53 1009.56 1009.68 1009.96 1010.43 1011.10 1011.94 1012.84 1013.68 1014.33 1014.67 1014.62 1014.16 1013.34 1012.27 1011.08 1009.94 1009.01 1008.39 1008.12 1008.22 1008.62 1009.21 1009.90 1010.57 1011.14 1011.58 1011.88 1012.09 1012.26 1012.45 1012.71 1013.08 1013.55 1014.09 1014.66 1015.23 1015.73 1016.14 1016.44 1016.65 1016.79 1016.87 1016.94
1009.39 1009.51 1009.69 1009.97 1010.37 1010.90 1011.51 1012.14 1012.70 1013.09 1013.22 1013.06 1012.60 1011.89 1011.01 1010.09 1009.26 1008.61 1008.24 1008.16 1008.37 1008.80 1009.38 1010.01 1010.60 1011.10 1011.50 1011.79 1012.01 1012.22 1012.47 1012.79 1013.20 1013.70 1014.26 1014.85 1015.40 1015.90 1016.30 1016.61 1016.83 1016.98 1017.08 1017.16
1009.33 1009.54 1009.76 1010.01 1010.33 1010.68 1011.06 1011.42 1011.68 1011.80 1011.74 1011.47 1011.00 1010.39 1009.71 1009.04 1008.49 1008.12 1007.98 1008.08 1008.38 1008.85 1009.40 1009.97 1010.49 1010.94 1011.31 1011.60 1011.86 1012.13 1012.45 1012.84 1013.32 1013.86 1014.44 1015.03 1015.59 1016.07 1016.47 1016.78 1017.01 1017.18 1017.30 1017.41
1009.45 1009.70 1009.94 1010.17 1010.38 1010.56 1010.71 1010.79 1010.78 1010.64 1010.38 1009.99 1009.50 1008.96 1008.43 1007.98 1007.67 1007.53 1007.58 1007.81 1008.20 1008.68 1009.22 1009.74 1010.22 1010.65 1011.01 1011.33 1011.65 1012.00 1012.40 1012.87 1013.41 1013.99 1014.60 1015.19 1015.74 1016.22 1016.61 1016.93 1017.17 1017.37 1017.52 1017.67
1009.77 1010.05 1010.28 1010.46 1010.57 1010.59 1010.53 1010.36 1010.09 1009.72 1009.26 1008.74 1008.21 1007.70 1007.26 1006.96 1006.81 1006.83 1007.01 1007.35 1007.79 1008.29 1008.82 1009.32 1009.79 1010.22 1010.61 1010.99 1011.38 1011.82 1012.31 1012.86 1013.45 1014.07 1014.69 1015.28 1015.82 1016.29 1016.69 1017.02 1017.29 1017.52 1017.73 1017.92
1010.29 1010.56 1010.77 1010.89 1010.90 1010.79 1010.54 1010.16 1009.67 1009.09 1008.45 1007.80 1007.19 1006.66 1006.25 1006.01 1005.94 1006.05 1006.31 1006.69 1007.17 1007.69 1008.22 1008.74 1009.22 1009.69 1010.14 1010.60 1011.08 1011.61 1012.18 1012.80 1013.44 1014.08 1014.70 1015.29 1015.82 1016.28 1016.68 1017.03 1017.34 1017.63 1017.89 1018.14
1010.95 1011.18 1011.35 1011.40 1011.32 1011.09 1010.70 1010.16 1009.50 1008.74 1007.95 1007.17 1006.45 1005.86 1005.42 1005.17 1005.12 1005.24 1005.52 1005.92 1006.40 1006.94 1007.49 1008.04 1008.57 1009.11 1009.64 1010.19 1010.77 1011.38 1012.03 1012.69 1013.36 1014.01 1014.62 1015.19 1015.71 1016.18 1016.60 1016.98 1017.34 1017.69 1018.02 1018.34
1011.64 1011.81 1011.91 1011.90 1011.74 1011.42 1010.93 1010.27 1009.48 1008.60 1007.68 1006.79 1005.97 1005.29 1004.78 1004.48 1004.38 1004.46 1004.72 1005.10 1005.58 1006.13 1006.71 1007.30 1007.91 1008.52 1009.15 1009.79 1010.46 1011.14 1011.83 1012.53 1013.20 1013.85 1014.45 1015.01 1015.52 1016.00 1016.45 1016.88 1017.30 1017.72 1018.13 1018.52
1012.25 1012.34 1012.36 1012.28 1012.06 1011.67 1011.12 1010.39 1009.53 1008.57 1007.57 1006.59 1005.70 1004.93 1004.34 1003.95 1003.78 1003.80 1003.99 1004.34 1004.81 1005.35 1005.96 1006.61 1007.29 1007.98 1008.70 1009.42 1010.15 1010.89 1011.61 1012.32 1012.99 1013.62 1014.21 1014.76 1015.28 1015.77 1016.26 1016.75 1017.25 1017.75 1018.23 1018.70
1012.70 1012.69 1012.63 1012.47 1012.20 1011.77 1011.18 1010.43 1009.55 1008.57 1007.54 1006.52 1005.57 1004.74 1004.08 1003.61 1003.35 1003.29 1003.43 1003.72 1004.16 1004.70 1005.33 1006.02 1006.76 1007.52 1008.30 1009.08 1009.86 1010.63 1011.37 1012.07 1012.73 1013.34 1013.92 1014.47 1015.01 1015.54 1016.08 1016.64 1017.21 1017.78 1018.34 1018.88
1012.93 1012.82 1012.67 1012.44 1012.12 1011.67 1011.08 1010.35 1009.49 1008.53 1007.52 1006.51 1005.55 1004.70 1003.98 1003.46 1003.12 1002.99 1003.06 1003.30 1003.70 1004.23 1004.86 1005.57 1006.34 1007.14 1007.96 1008.78 1009.58 1010.36 1011.09 1011.79 1012.43 1013.04 1013.62 1014.19 1014.76 1015.33 1015.94 1016.56 1017.20 1017.85 1018.47 1019.06
1012.96 1012.75 1012.51 1012.21 1011.85 1011.39 1010.82 1010.13 1009.33 1008.45 1007.50 1006.54 1005.62 1004.77 1004.05 1003.48 1003.10 1002.91 1002.91 1003.10 1003.45 1003.94 1004.56 1005.27 1006.04 1006.85 1007.68 1008.50 1009.30 1010.07 1010.80 1011.49 1012.13 1012.75 1013.34 1013.94 1014.55 1015.18 1015.85 1016.53 1017.24 1017.94 1018.61 1019.24
1012.85 1012.53 1012.21 1011.86 1011.46 1011.01 1010.47 1009.85 1009.13 1008.34 1007.49 1006.62 1005.76 1004.96 1004.25 1003.68 1003.27 1003.03 1002.98 1003.10 1003.39 1003.84 1004.41 1005.08 1005.82 1006.61 1007.42 1008.23 1009.02 1009.78 1010.50 1011.19 1011.84 1012.48 1013.11 1013.75 1014.41 1015.09 1015.81 1016.55 1017.30 1018.04 1018.74 1019.38
1012.67 1012.27 1011.88 1011.48 1011.07 1010.63 1010.13 1009.58 1008.96 1008.27 1007.53 1006.77 1006.00 1005.26 1004.59 1004.03 1003.60 1003.33 1003.21 1003.27 1003.49 1003.86 1004.36 1004.97 1005.66 1006.40 1007.18 1007.96 1008.73 1009.48 1010.20 1010.90 1011.58 1012.25 1012.92 1013.61 1014.33 1015.07 1015.83 1016.61 1017.38 1018.13 1018.83 1019.47
Thickness
5808 5794 5785 5792 5797 5797 5792 5785 5781 5790 5804 5795 5787 5787 5794 5801 5799 5796 5794 5794 5793 5793 5796 5797 5796 5796 5793 5791 5789 5787 5785 5784 5783 5781 5778 5775 5773 5773 5773 5773 5772 5772 5771 5770
5791 5787 5802 5808 5806 5800 5792 5782 5781 5791 5802 5795 5785 5786 5795 5799 5799 5800 5797 5795 5795 5793 5793 5794 5794 5794 5792 5790 5788 5786 5784 5783 5782 5780 5778 5775 5773 5771 5771 5771 5770 5770 5769 5768
5785 5797 5810 5804 5797 5791 5788 5783 5784 5784 5791 5791 5784 5778 5786 5796 5801 5802 5801 5799 5798 5796 5793 5793 5793 5792 5791 5789 5787 5786 5783 5782 5781 5780 5777 5775 5771 5769 5767 5766 5766 5767 5767 5765
5790 5803 5805 5799 5795 5794 5781 5798 5796 5788 5775 5765 5774 5754 5777 5787 5790 5795 5797 5797 5797 5799 5797 5795 5793 5792 5791 5790 5788 5785 5783 5781 5780 5778 5775 5771 5767 5763 5763 5763 5763 5763 5763 5763
5788 5800 5799 5794 5800 5801 5794 5802 5794 5786 5773 5761 5765 5755 5767 5782 5782 5791 5797 5799 5800 5800 5799 5797 5796 5794 5792 5790 5787 5784 5781 5779 5778 5776 5773 5770 5766 5764 5762 5762 5760 5759 5759 5759
5795 5808 5807 5806 5811 5810 5804 5792 5781 5768 5759 5746 5757 5753 5759 5775 5787 5795 5800 5802 5802 5802 5801 5798 5796 5794 5791 5789 5786 5783 5779 5777 5776 5774 5771 5768 5764 5761 5759 5757 5756 5755 5755 5755
5783 5797 5809 5814 5800 5801 5794 5768 5745 5742 5733 5739 5757 5754 5762 5792 5800 5802 5802 5803 5804 5803 5800 5797 5794 5791 5788 5786 5784 5781 5777 5774 5773 5771 5769 5766 5763 5760 5757 5755 5753 5752 5751 5750
5764 5768 5797 5807 5801 5788 5784 5773 5745 5734 5729 5738 5752 5751 5776 5802 5806 5808 5807 5806 5804 5802 5800 5797 5794 5792 5788 5785 5782 5778 5775 5773 5771 5769 5766 5763 5761 5758 5755 5753 5751 5749 5748 5747
5760 5767 5799 5808 5810 5799 5779 5770 5772 5746 5740 5735 5743 5761 5784 5801 5801 5803 5803 5802 5801 5801 5799 5797 5793 5790 5787 5784 5780 5777 5774 5770 5768 5766 5763 5760 5758 5755 5752 5751 5749 5747 5745 5744
5775 5767 5788 5800 5804 5797 5791 5774 5755 5741 5728 5727 5741 5751 5762 5784 5791 5796 5797 5798 5800 5799 5797 5795 5793 5789 5786 5783 5779 5776 5772 5768 5765 5762 5759 5757 5754 5752 5749 5747 5744 5742 5741 5740
5778 5765 5773 5784 5781 5778 5777 5769 5754 5740 5740 5727 5726 5747 5787 5789 5795 5795 5797 5798 5798 5797 5795 5793 5791 5788 5784 5780 5775 5771 5768 5764 5760 5757 5754 5752 5749 5747 5745 5742 5740 5738 5737 5736
5771 5758 5752 5768 5786 5791 5785 5773 5758 5747 5739 5731 5730 5750 5798 5797 5799 5798 5796 5797 5796 5795 5793 5790 5787 5784 5779 5775 5771 5768 5764 5760 5757 5754 5750 5747 5745 5743 5740 5737 5736 5734 5732 5731
5769 5752 5739 5746 5760 5775 5774 5771 5763 5751 5737 5726 5728 5755 5793 5794 5795 5796 5794 5793 5792 5790 5788 5785 5781 5778 5775 5771 5768 5765 5760 5756 5753 5749 5746 5743 5741 5738 5735 5732 5731 5729 5727 5725
5774 5749 5743 5739 5747 5761 5764 5767 5761 5752 5736 5731 5740 5758 5777 5784 5786 5788 5789 5788 5786 5784 5782 5779 5776 5773 5770 5767 5764 5760 5755 5752 5749 5745 5741 5737 5735 5733 5731 5729 5726 5724 5722 5720
5766 5749 5752 5755 5763 5764 5764 5765 5761 5756 5751 5745 5754 5757 5772 5780 5783 5784 5784 5782 5780 5778 5776 5773 5770 5767 5765 5762 5758 5755 5751 5748 5745 5740 5736 5734 5732 5729 5727 5724 5722 5719 5716 5714
5750 5744 5746 5749 5758 5759 5757 5762 5761 5759 5757 5754 5758 5761 5778 5780 5780 5779 5778 5777 5775 5773 5772 5770 5767 5764 5760 5757 5753 5750 5747 5743 5739 5735 5732 5729 5726 5724 5721 5719 5716 5714 5711 5708
5736 5735 5729 5727 5742 5748 5738 5752 5754 5755 5758 5756 5752 5763 5772 5771 5773 5773 5774 5774 5773 5771 5769 5765 5762 5759 5757 5753 5750 5746 5742 5738 5734 5730 5727 5724 5722 5719 5716 5714 5710 5707 5705 5703
5730 5722 5713 5714 5727 5717 5737 5759 5759 5755 5756 5758 5759 5762 5765 5767 5768 5770 5771 5769 5768 5767 5764 5761 5758 5754 5752 5749 5745 5741 5737 5732 5728 5724 5721 5719 5716 5713 5711 5707 5704 5701 5699 5696
5728 5719 5706 5701 5705 5716 5736 5751 5750 5746 5746 5755 5754 5757 5758 5761 5762 5761 5765 5766 5764 5763 5760 5757 5754 5750 5746 5742 5739 5734 5729 5725 5721 5718 5715 5713 5710 5707 5704 5701 5698 5695 5692 5689
5716 5714 5703 5696 5701 5701 5727 5749 5754 5746 5733 5750 5749 5748 5749 5751 5742 5748 5757 5757 5756 5755 5753 5750 5748 5744 5739 5736 5732 5726 5721 5717 5715 5713 5710 5707 5705 5701 5697 5694 5691 5688 5685 5682
5700 5696 5693 5691 5694 5705 5730 5741 5745 5722 5727 5743 5744 5743 5741 5739 5741 5746 5748 5748 5748 5746 5745 5743 5740 5736 5733 5729 5724 5718 5714 5710 5709 5706 5703 5700 5697 5694 5691 5687 5683 5680 5677 5674
5690 5687 5684 5682 5686 5697 5726 5729 5723 5723 5732 5735 5736 5736 5734 5733 5736 5737 5738 5739 5739 5737 5735 5733 5730 5726 5723 5720 5716 5710 5705 5703 5701 5698 5695 5691 5689 5686 5683 5679 5675 5671 5668 5665
5684 5687 5686 5688 5693 5706 5714 5716 5721 5723 5723 5726 5727 5727 5727 5725 5725 5726 5727 5728 5728 5727 5725 5723 5720 5715 5713 5710 5707 5702 5698 5695 5692 5688 5684 5681 5679 5676 5673 5670 5667 5662 5659 5656
5681 5683 5682 5685 5695 5702 5707 5711 5715 5718 5719 5721 5721 5720 5720 5717 5716 5716 5717 5716 5715 5715 5714 5712 5709 5705 5702 5700 5697 5693 5690 5686 5682 5678 5675 5671 5669 5667 5664 5662 5658 5655 5651 5648
5675 5676 5674 5678 5687 5694 5701 5704 5706 5709 5711 5713 5712 5712 5710 5708 5706 5706 5706 5705 5704 5703 5703 5701 5698 5695 5692 5690 5687 5685 5681 5677 5673 5669 5666 5663 5660 5657 5655 5653 5649 5647 5645 5642
5667 5668 5668 5672 5682 5682 5688 5695 5699 5700 5701 5702 5701 5700 5701 5700 5697 5696 5695 5694 5693 5692 5691 5690 5689 5686 5682 5680 5678 5675 5672 5669 5665 5661 5657 5655 5652 5649 5646 5643 5641 5640 5638 5635